Weather History for VTSP - July, 2012

Change the Weather History Date:

Friday, July 6, 2012

  Actual Average Record
Temperature  
Mean Temperature 79 °F -  
Max Temperature 85 °F 88 °F - (-1)
Min Temperature 73 °F 78 °F - (-1)
Cooling Degree Days 14    
Growing Degree Days 29 (Base 50)    
Moisture  
Dew Point 74 °F    
Average Humidity 87    
Maximum Humidity 95    
Minimum Humidity 70    
Precipitation  
Precipitation 0.47 in 0.37 in - ()
Sea Level Pressure  
Sea Level Pressure 29.75 in    
Wind  
Wind Speed 3 mph ()    
Max Wind Speed 23 mph    
Max Gust Speed 23 mph    
Visibility 4.2 miles    
Events Rain    
Averages and records for this station are not official NWS values.
T = Trace of Precipitation, MM = Missing Value Source: Averaged Metar Reports

Daily Weather History Graph

Daily Weather History Graph

Search for Another Location

Airport or City:

Trip Planner

Search our weather history database for the weather conditions in past years. The results will help you decide how hot, cold, wet, or windy it might be!

Date:

Astronomy

Jul. 06, 2012 Rise Set
Actual Time 6:14 AM ICT 6:48 PM ICT
Civil Twilight 5:51 AM ICT 7:11 PM ICT
Nautical Twilight 5:24 AM ICT 7:38 PM ICT
Astronomical Twilight 4:57 AM ICT 8:05 PM ICT
Moon 9:03 PM ICT (7/6) 8:24 AM ICT (7/6)
Length of Visible Light 13h 20m
Length of Day
12h 34m
Waning Gibbous, 92% of the Moon is Illuminated
Jul 6
Waning Gibbous
Jul 11
Last Quarter
Jul 19
New
Jul 26
First Quarter
Aug 2
Full

Hourly Weather History & Observations

Time (ICT) Temp. Heat Index Dew Point Humidity Pressure Visibility Wind Dir Wind Speed Gust Speed Precip Events Conditions
12:00 AM 75.2 °F - 71.6 °F 89% 29.80 in 4.3 mi Calm Calm - N/A   Mostly Cloudy
12:30 AM 75.2 °F - 73.4 °F 94% 29.77 in 4.3 mi Calm Calm - N/A   Mostly Cloudy
1:00 AM 76 °F - 75 °F 95% 29.74 in 4 mi Calm Calm - -   Mist
1:00 AM 75.2 °F - 73.4 °F 94% 29.77 in 4.3 mi Calm Calm - N/A   Mostly Cloudy
1:30 AM 75.2 °F - 73.4 °F 94% 29.77 in 4.3 mi Calm Calm - N/A   Mostly Cloudy
2:00 AM 75.2 °F - 73.4 °F 94% 29.74 in 4.3 mi Calm Calm - N/A   Mostly Cloudy
2:30 AM 75.2 °F - 73.4 °F 94% 29.74 in 4.3 mi Calm Calm - N/A   Mostly Cloudy
3:00 AM 75.2 °F - 73.4 °F 94% 29.74 in 4.3 mi Calm Calm - N/A   Mostly Cloudy
3:30 AM 75.2 °F - 73.4 °F 94% 29.71 in 4.3 mi Calm Calm - N/A   Mostly Cloudy
4:00 AM 75.2 °F - 73.4 °F 94% 29.71 in 4.3 mi Calm Calm - N/A   Mostly Cloudy
4:30 AM 75.2 °F - 73.4 °F 94% 29.71 in 4.3 mi Variable 1.2 mph - N/A   Mostly Cloudy
5:00 AM 75.2 °F - 73.4 °F 94% 29.71 in 4.3 mi Variable 1.2 mph - N/A   Mostly Cloudy
5:30 AM 75.2 °F - 73.4 °F 94% 29.71 in 3.1 mi Variable 1.2 mph - N/A Rain Light Rain
6:00 AM 77.0 °F - 75.2 °F 94% 29.71 in 3.1 mi Variable 2.3 mph - N/A Rain Light Rain
6:30 AM 77.0 °F - 75.2 °F 94% 29.74 in 4.3 mi Calm Calm - N/A Rain Light Rain
7:00 AM 78 °F - 77 °F 94% 29.70 in 6 mi Calm Calm - - Rain Light Rain
7:00 AM 77.0 °F - 75.2 °F 94% 29.74 in 4.3 mi Variable 2.3 mph - N/A   Mostly Cloudy
7:30 AM 77.0 °F - 75.2 °F 94% 29.77 in 4.3 mi Calm Calm - N/A   Mostly Cloudy
8:00 AM 78.8 °F - 75.2 °F 89% 29.77 in 4.3 mi Variable 2.3 mph - N/A   Mostly Cloudy
8:30 AM 78.8 °F - 77.0 °F 94% 29.77 in 4.3 mi Calm Calm - N/A   Mostly Cloudy
9:00 AM 80.6 °F 86.2 °F 75.2 °F 84% 29.77 in 4.3 mi Calm Calm - N/A Rain Light Rain
9:30 AM 80.6 °F 87.1 °F 77.0 °F 89% 29.77 in 4.3 mi Calm Calm - N/A   Mostly Cloudy
10:00 AM 82.4 °F 89.5 °F 75.2 °F 79% 29.77 in 4.3 mi SW 4.6 mph - N/A   Mostly Cloudy
10:30 AM 84.2 °F 92.3 °F 75.2 °F 74% 29.77 in 4.3 mi WSW 6.9 mph - N/A Rain Light Rain
11:00 AM 84.2 °F 94.1 °F 77.0 °F 79% 29.77 in 4.3 mi West 17.3 mph - N/A   Mostly Cloudy
11:30 AM 84.2 °F 92.3 °F 75.2 °F 74% 29.77 in 4.3 mi West 15.0 mph - N/A   Mostly Cloudy
12:00 PM 86.0 °F 95.1 °F 75.2 °F 70% 29.77 in 5.0 mi West 16.1 mph - N/A   Mostly Cloudy
12:30 PM 82.4 °F 88.2 °F 73.4 °F 74% 29.77 in 5.0 mi WSW 4.6 mph - N/A   Mostly Cloudy
1:00 PM 83 °F - 75 °F 72% 29.72 in 6 mi SW 4.6 mph - - Rain Light Rain
1:00 PM 80.6 °F 86.2 °F 75.2 °F 84% 29.74 in 5.0 mi SSW 4.6 mph - N/A Rain Light Rain
1:30 PM 82.4 °F 89.5 °F 75.2 °F 79% 29.74 in 5.0 mi WSW 4.6 mph - N/A   Mostly Cloudy
2:00 PM 82.4 °F 89.5 °F 75.2 °F 79% 29.74 in 5.0 mi SW 4.6 mph - N/A Rain Light Rain
2:30 PM 80.6 °F 86.2 °F 75.2 °F 84% 29.74 in 4.3 mi WSW 5.8 mph - N/A Rain Light Rain
3:00 PM 80.6 °F 86.2 °F 75.2 °F 84% 29.74 in 4.3 mi SSW 5.8 mph - N/A   Mostly Cloudy
3:30 PM 80.6 °F 86.2 °F 75.2 °F 84% 29.71 in 4.3 mi West 3.5 mph - N/A   Mostly Cloudy
4:00 PM 80.6 °F 85.4 °F 73.4 °F 79% 29.71 in 4.3 mi WSW 6.9 mph 20.7 mph N/A   Mostly Cloudy
4:30 PM 78.8 °F - 73.4 °F 83% 29.71 in 4.3 mi SSW 3.5 mph - N/A Rain Light Rain
5:00 PM 77.0 °F - 73.4 °F 89% 29.74 in 1.2 mi SW 11.5 mph 23.0 mph N/A Rain Rain
5:30 PM 75.2 °F - 73.4 °F 94% 29.74 in 3.1 mi WSW 3.5 mph - N/A Rain Light Rain
6:00 PM 75.2 °F - 73.4 °F 94% 29.74 in 3.7 mi SW 4.6 mph - N/A Rain Light Rain
6:30 PM 77.0 °F - 75.2 °F 94% 29.74 in 3.1 mi WSW 9.2 mph - N/A Rain Light Rain
7:00 PM 81 °F - 75 °F 78% 29.70 in 3 mi West 12.7 mph - - Rain Light Rain
7:00 PM 77.0 °F - 73.4 °F 89% 29.74 in 3.1 mi WSW 23.0 mph - N/A Rain Rain
7:30 PM 78.8 °F - 75.2 °F 89% 29.74 in 3.7 mi West 13.8 mph - N/A   Mostly Cloudy
8:00 PM 78.8 °F - 73.4 °F 83% 29.77 in 4.3 mi West 11.5 mph - N/A   Mostly Cloudy
8:30 PM 78.8 °F - 75.2 °F 89% 29.77 in 4.3 mi West 8.1 mph - N/A   Mostly Cloudy
9:00 PM 78.8 °F - 73.4 °F 83% 29.80 in 4.3 mi West 3.5 mph - N/A   Mostly Cloudy
9:30 PM 78.8 °F - 75.2 °F 89% 29.77 in 4.3 mi West 9.2 mph - N/A   Mostly Cloudy
10:00 PM 78.8 °F - 73.4 °F 83% 29.80 in 4.3 mi West 9.2 mph - N/A   Mostly Cloudy
10:30 PM 78.8 °F - 73.4 °F 83% 29.80 in 4.3 mi West 5.8 mph - N/A   Mostly Cloudy
11:00 PM 78.8 °F - 73.4 °F 83% 29.80 in 4.3 mi Variable 2.3 mph - N/A   Mostly Cloudy
11:30 PM 78.8 °F - 73.4 °F 83% 29.80 in 4.3 mi Variable 2.3 mph - N/A   Mostly Cloudy